This is the latest recevied weather packets stored in our database for station/object VE9LJW. If no packets are shown the sender has not sent any weather packets the latest 10 day(s).
| Time | Temp. | Humidity | Pressure | Rain* | Wind** | Luminosity | Snow |
|---|---|---|---|---|---|---|---|
| 1777937243 | 13.33° C | 82% | 1002.5 hPa | 0 mm | - | 4 W/m² | - |
| 1777936940 | 13.33° C | 82% | 1002.8 hPa | 0 mm | - | 6 W/m² | - |
| 1777936636 | 13.33° C | 82% | 1002.4 hPa | 0 mm | - | 10 W/m² | - |
| 1777936333 | 13.89° C | 81% | 1002.5 hPa | 0 mm | - | 13 W/m² | - |
| 1777936029 | 13.89° C | 81% | 1002.5 hPa | 0 mm | - | 15 W/m² | - |
| 1777935728 | 13.89° C | 80% | 1002.5 hPa | 0 mm | - | 18 W/m² | - |
| 1777935426 | 13.89° C | 79% | 1002.1 hPa | 0 mm | - | 21 W/m² | - |
| 1777935122 | 13.89° C | 80% | 1002.1 hPa | 0 mm | - | 21 W/m² | - |
| 1777934820 | 14.44° C | 78% | 1002 hPa | 0 mm | - | 23 W/m² | - |
| 1777934516 | 14.44° C | 78% | 1002 hPa | 0 mm | - | 32 W/m² | - |
| 1777934213 | 14.44° C | 78% | 1001.7 hPa | 0 mm | - | 33 W/m² | - |
| 1777933908 | 15° C | 77% | 1001.8 hPa | 0 mm | - | 43 W/m² | - |
| 1777933606 | 15° C | 76% | 1001.7 hPa | 0 mm | - | 76 W/m² | - |
| 1777933302 | 15° C | 76% | 1001.7 hPa | 0 mm | - | 76 W/m² | - |
| 1777933000 | 15° C | 76% | 1001.5 hPa | 0 mm | - | 82 W/m² | - |
| 1777932697 | 15° C | 75% | 1001.8 hPa | 0 mm | - | 75 W/m² | - |
| 1777932393 | 15° C | 75% | 1001.5 hPa | 0 mm | - | 82 W/m² | - |
| 1777932091 | 15° C | 75% | 1001.5 hPa | 0 mm | - | 93 W/m² | - |
| 1777931786 | 15° C | 75% | 1001.3 hPa | 0 mm | - | 126 W/m² | - |
| 1777931479 | 15° C | 75% | 1001.5 hPa | 0 mm | - | 57 W/m² | - |
| 1777931175 | 15° C | 74% | 1001.3 hPa | 0 mm | - | 89 W/m² | - |
| 1777930871 | 15° C | 75% | 1001.3 hPa | 0 mm | - | 97 W/m² | - |
| 1777930568 | 15° C | 75% | 1001.5 hPa | 0 mm | - | 99 W/m² | - |
| 1777930265 | 15° C | 75% | 1001.4 hPa | 0 mm | - | 93 W/m² | - |
| 1777929960 | 15° C | 74% | 1001.3 hPa | 0 mm | - | 133 W/m² | - |
* Rain latest hour (hover to see other rain measurements)
** Current wind speed in m/s (hover to see current wind gust speed)